Location: Unspecified
(48.7170°N, 0.0000°E)
Time: 11:16:37
(UTC+00:00)

ISS - Pass Details

Date: 25 May 2019
Orbit: 408 x 418 km, 51.6° (Epoch: 17 June)

Event Time Altitude Azimuth Distance (km) Brightness Sun altitude
Rises 21:20:38 0° 279° (W) 2,355 0.8 -12.0°
Reaches altitude 10° 21:22:46 10° 285° (WNW) 1,494 -0.1 -12.2°
Maximum altitude 21:26:02 49° 2° (N) 549 -2.8 -12.6°
Drops below altitude 10° 21:29:20 10° 79° (E) 1,500 -1.2 -12.9°
Enters shadow 21:30:20 - 82° (E) 1,899 -0.7 -13.0°
